{"data":{"norad_id":43924,"epoch":"2026-09-20T00:21:18.950688Z","epoch_age_seconds":57428,"freshness":"FRESH","line1":"1 43924U 19002C   26263.01480267  .00000088  00000+0  24293-4 0  9990","line2":"2 43924  86.3974 314.0597 0002253  95.3022 264.8430 14.34217176402563","mean_motion":14.34217176,"eccentricity":0.0002253,"inclination_deg":86.3974,"raan_deg":314.0597,"arg_perigee_deg":95.3022,"mean_anomaly_deg":264.843,"bstar":2.4293e-5,"rev_number":40256,"period_min":100.40320420762,"perigee_km":776.05686050321,"apogee_km":779.28126671547,"semimajor_km":7155.8060636093,"source":"CELESTRAK","updated_at":"2026-09-20T09:00:36.355347Z"}}